Location: Fort Wayne
(41.1310°N, 85.1290°W)
Time: 03:56:10
(UTC-04:00)

Cosmos 2219 Rocket - Visible Passes

Search period start: 23 October 2014 00:00
Search period end: 02 November 2014 00:00
Orbit: 827 x 848 km, 71.0° (Epoch: 22 October)

Date Brightness Start Highest point End Pass type
(mag) Time Alt. Az. Time Alt. Az. Time Alt. Az.
23 Oct 4.0 04:56:05 13° N 05:00:10 27° NE 05:04:56 10° ESE visible
23 Oct 2.4 06:38:55 10° NW 06:44:19 46° WSW 06:49:41 10° S visible
23 Oct 2.3 19:45:17 10° S 19:50:40 51° ESE 19:56:08 10° NNE visible
23 Oct 4.2 21:30:22 10° WSW 21:34:55 25° NW 21:39:31 10° N visible
24 Oct 4.1 04:42:12 22° NNE 04:43:52 26° NE 04:48:31 10° ESE visible
24 Oct 2.3 06:24:04 18° NW 06:28:05 50° WSW 06:33:31 10° S visible
24 Oct 2.5 19:29:06 10° S 19:34:26 47° ESE 19:39:50 10° NE visible
24 Oct 4.1 21:13:57 10° WSW 21:18:37 26° NW 21:23:20 10° N visible
25 Oct 4.3 04:28:23 23° ENE 04:28:23 23° ENE 04:32:05 10° ESE visible
25 Oct 2.2 06:10:16 41° WNW 06:11:51 54° WSW 06:17:20 10° S visible
25 Oct 2.6 19:12:56 10° S 19:18:12 43° ESE 19:23:32 10° NE visible
25 Oct 4.0 20:57:31 10° WSW 21:02:19 28° NW 21:07:09 10° N visible
26 Oct 4.8 04:14:33 14° E 04:14:33 14° E 04:15:38 10° ESE visible
26 Oct 2.3 05:56:26 53° SW 05:56:26 53° SW 06:01:08 10° S visible
26 Oct 4.0 20:41:07 10° WSW 20:46:01 30° NW 20:50:58 10° N visible
27 Oct 3.5 05:42:30 26° S 05:42:30 26° S 05:44:56 10° S visible
27 Oct 3.9 20:24:43 10° WSW 20:29:43 32° WNW 20:34:46 10° N visible
28 Oct 4.5 05:28:25 12° S 05:28:25 12° S 05:28:43 10° SSE visible
28 Oct 3.8 20:08:20 10° WSW 20:13:25 34° WNW 20:18:34 10° N visible
29 Oct 3.7 19:51:58 10° SW 19:57:08 37° WNW 20:02:22 10° N visible
30 Oct 3.5 19:35:36 10° SW 19:40:51 39° WNW 19:46:09 10° N visible
31 Oct 3.4 19:19:15 10° SW 19:24:33 42° WNW 19:29:56 10° N visible
01 Nov 3.3 19:02:54 10° SW 19:08:16 45° WNW 19:13:43 10° NNE visible
